contact:dominique.lefevre@mio.osupytheas.fr, maurice.libes@osupytheas.fr, didier.mallarino@osupytheas.fr
Project:EMSO http://www.emso-fr.org/EMSO-France
Depth: 2436.0 m
Title:EMSO Ligure Ouest : Data MII capteur AQUADOPP
Date,Latitude,Longitude,X_East,Y_North,Z_Up,Amplitude_X,Amplitude_Y,Amplitude_Z,Batterie,SoundSpeed,Heading,Pitch,Roll,Pressure,TIS,Speed,Direction
, degrees North, degrees East, m.s-1, m.s-1,m.s-1, 1, 1, 1, Volt, m.s-1, degree, degree, degree, dbar, degree_C, m.s-1, degree
2020-10-20T00:04:03,42.805,6.029,-0.067,-0.035,-0.02,102.0,105.0,103.0,13.4,1505.3,326.5,-0.7,1.8,2470.489,13.31,0.075,242.4
2020-10-20T00:07:03,42.805,6.029,-0.04,-0.024,-0.019,104.0,106.0,101.0,13.3,1505.3,322.9,-0.7,1.8,2470.485,13.31,0.046,239.0
2020-10-20T00:10:03,42.805,6.029,-0.04,-0.014,-0.034,103.0,106.0,101.0,13.3,1505.3,325.8,-0.7,1.8,2470.495,13.32,0.042,250.7
2020-10-20T00:13:03,42.805,6.029,-0.038,-0.026,-0.026,103.0,105.0,100.0,13.4,1505.3,325.7,-0.7,1.8,2470.464,13.32,0.046,235.6
2020-10-20T00:16:03,42.805,6.029,-0.036,-0.036,-0.002,104.0,106.0,101.0,13.4,1505.3,322.6,-0.7,1.8,2470.448,13.32,0.05,225.0
2020-10-20T00:19:03,42.805,6.029,-0.039,-0.008,-0.014,104.0,106.0,100.0,13.3,1505.3,327.0,-0.7,1.8,2470.449,13.32,0.039,258.4
2020-10-20T00:22:03,42.805,6.029,-0.01,-0.026,-0.019,103.0,106.0,102.0,13.4,1505.3,326.5,-0.7,1.8,2470.485,13.33,0.027,201.0
2020-10-20T00:25:03,42.805,6.029,-0.031,-0.031,0.004,103.0,104.0,102.0,13.3,1505.3,323.0,-0.7,1.8,2470.43,13.33,0.043,225.0
2020-10-20T00:28:03,42.805,6.029,-0.031,-0.017,0.017,104.0,105.0,101.0,13.4,1505.3,325.0,-0.7,1.8,2470.444,13.33,0.035,241.3
2020-10-20T00:31:03,42.805,6.029,-0.018,-0.022,0.01,104.0,105.0,101.0,13.4,1505.3,323.7,-0.7,1.8,2470.456,13.33,0.028,219.3
2020-10-20T00:34:03,42.805,6.029,-0.039,-0.006,-0.02,104.0,105.0,102.0,13.4,1505.3,325.0,-0.7,1.8,2470.433,13.33,0.039,261.3
2020-10-20T00:37:03,42.805,6.029,-0.041,-0.025,-0.013,103.0,105.0,101.0,13.4,1505.3,327.5,-0.7,1.8,2470.427,13.33,0.048,238.6
2020-10-20T00:40:03,42.805,6.029,-0.025,-0.034,0.003,104.0,106.0,101.0,13.4,1505.3,326.2,-0.7,1.8,2470.447,13.33,0.042,216.3
2020-10-20T00:43:03,42.805,6.029,-0.016,-0.029,0.007,103.0,105.0,102.0,13.4,1505.3,327.8,-0.7,1.8,2470.416,13.33,0.033,208.9
2020-10-20T00:46:03,42.805,6.029,-0.078,-0.019,-0.028,103.0,105.0,102.0,13.3,1505.3,324.9,-0.7,1.8,2470.458,13.33,0.08,256.3
2020-10-20T00:49:03,42.805,6.029,-0.073,-0.035,-0.026,103.0,106.0,101.0,13.3,1505.3,326.3,-0.7,1.8,2470.427,13.33,0.08,244.4
2020-10-20T00:55:03,42.805,6.029,-0.037,-0.016,0.007,105.0,106.0,102.0,13.4,1505.3,325.1,-0.7,1.8,2470.453,13.31,0.04,246.6
2020-10-20T00:58:03,42.805,6.029,-0.019,-0.012,0.003,104.0,107.0,101.0,13.4,1505.3,323.7,-0.7,1.9,2470.445,13.32,0.022,237.7
2020-10-20T01:04:03,42.805,6.029,-0.053,-0.007,-0.031,104.0,108.0,102.0,13.4,1505.2,324.5,-0.7,1.8,2470.467,13.3,0.053,262.5
2020-10-20T01:07:03,42.805,6.029,-0.065,-0.01,-0.015,104.0,106.0,101.0,13.4,1505.3,328.4,-0.7,1.8,2470.481,13.31,0.065,261.3
2020-10-20T01:10:03,42.805,6.029,-0.023,-0.027,-0.015,103.0,105.0,101.0,13.4,1505.3,322.9,-0.7,1.8,2470.449,13.32,0.035,220.4
2020-10-20T01:13:03,42.805,6.029,-0.04,-0.011,-0.034,104.0,106.0,102.0,13.4,1505.3,326.3,-0.7,1.8,2470.43,13.32,0.041,254.6
2020-10-20T01:16:03,42.805,6.029,-0.034,-0.034,-0.005,104.0,104.0,102.0,13.3,1505.3,323.5,-0.7,1.8,2470.427,13.32,0.048,225.0
2020-10-20T01:19:03,42.805,6.029,-0.066,-0.039,-0.061,104.0,105.0,102.0,13.4,1505.3,324.6,-0.7,1.8,2470.423,13.32,0.076,239.4
2020-10-20T01:22:03,42.805,6.029,-0.032,-0.027,-0.043,103.0,107.0,101.0,13.4,1505.3,325.3,-0.6,1.8,2470.455,13.32,0.041,229.8
2020-10-20T01:25:03,42.805,6.029,-0.041,-0.009,0.001,104.0,105.0,101.0,13.4,1505.3,326.4,-0.7,1.8,2470.434,13.33,0.041,257.6
2020-10-20T01:28:03,42.805,6.029,-0.03,-0.029,-0.005,104.0,104.0,101.0,13.4,1505.3,325.9,-0.7,1.8,2470.464,13.33,0.041,226.0
2020-10-20T01:31:03,42.805,6.029,0.011,-0.025,0.026,103.0,105.0,102.0,13.3,1505.3,323.7,-0.7,1.8,2470.394,13.33,0.027,156.3
2020-10-20T01:34:03,42.805,6.029,-0.022,-0.036,0.007,103.0,104.0,102.0,13.4,1505.3,326.8,-0.7,1.8,2470.392,13.33,0.042,211.4
2020-10-20T01:37:03,42.805,6.029,-0.017,-0.019,0.0,105.0,106.0,101.0,13.4,1505.3,326.2,-0.7,1.8,2470.346,13.33,0.025,221.8
2020-10-20T01:40:03,42.805,6.029,-0.031,-0.028,-0.011,104.0,104.0,100.0,13.4,1505.3,323.2,-0.7,1.8,2470.38,13.33,0.041,227.9
2020-10-20T01:43:03,42.805,6.029,-0.046,-0.019,-0.027,105.0,104.0,100.0,13.4,1505.3,326.9,-0.7,1.8,2470.37,13.33,0.049,247.6
2020-10-20T01:46:03,42.805,6.029,-0.032,-0.04,-0.004,103.0,104.0,102.0,13.4,1505.3,324.4,-0.7,1.8,2470.38,13.33,0.051,218.7
2020-10-20T01:49:03,42.805,6.029,-0.026,-0.028,-0.003,103.0,104.0,101.0,13.3,1505.3,327.6,-0.7,1.8,2470.383,13.33,0.038,222.9
2020-10-20T01:52:03,42.805,6.029,-0.012,-0.053,-0.022,103.0,104.0,101.0,13.4,1505.3,324.4,-0.7,1.8,2470.387,13.33,0.054,192.8
2020-10-20T01:55:03,42.805,6.029,-0.011,-0.033,-0.033,105.0,104.0,102.0,13.4,1505.3,324.9,-0.7,1.9,2470.38,13.33,0.034,198.4
2020-10-20T01:58:03,42.805,6.029,-0.01,-0.024,0.004,104.0,104.0,102.0,13.3,1505.3,325.9,-0.7,1.8,2470.393,13.33,0.026,202.6
2020-10-20T02:04:03,42.805,6.029,-0.019,-0.034,0.012,103.0,104.0,101.0,13.4,1505.3,324.9,-0.8,1.8,2470.441,13.31,0.038,209.2
2020-10-20T02:07:03,42.805,6.029,-0.013,-0.023,-0.003,105.0,106.0,102.0,13.4,1505.3,325.9,-0.7,1.8,2470.392,13.31,0.026,209.5
2020-10-20T02:10:03,42.805,6.029,-0.02,-0.022,0.022,104.0,105.0,101.0,13.4,1505.3,325.3,-0.7,1.8,2470.368,13.32,0.029,222.3
2020-10-20T02:13:03,42.805,6.029,-0.07,-0.023,-0.033,104.0,104.0,101.0,13.4,1505.3,327.2,-0.7,1.8,2470.396,13.32,0.073,251.8
2020-10-20T02:16:03,42.805,6.029,-0.064,-0.024,-0.021,103.0,105.0,102.0,13.4,1505.3,326.8,-0.7,1.8,2470.395,13.32,0.068,249.4
2020-10-20T02:19:03,42.805,6.029,-0.037,-0.032,-0.042,103.0,105.0,100.0,13.4,1505.3,326.3,-0.7,1.8,2470.4,13.32,0.048,229.1
2020-10-20T02:22:03,42.805,6.029,-0.009,-0.06,0.001,104.0,103.0,100.0,13.3,1505.3,326.5,-0.7,1.9,2470.371,13.32,0.06,188.5
2020-10-20T02:25:03,42.805,6.029,-0.019,-0.018,0.004,104.0,104.0,100.0,13.3,1505.3,324.8,-0.7,1.8,2470.395,13.32,0.026,226.5
2020-10-20T02:28:03,42.805,6.029,-0.046,-0.032,-0.031,104.0,106.0,101.0,13.4,1505.3,327.4,-0.7,1.8,2470.362,13.33,0.056,235.2
2020-10-20T02:34:03,42.805,6.029,-0.022,-0.061,0.002,103.0,106.0,101.0,13.4,1505.3,326.5,-0.7,1.8,2470.459,13.31,0.064,199.8
2020-10-20T02:37:03,42.805,6.029,-0.033,-0.023,-0.011,104.0,106.0,100.0,13.3,1505.3,327.6,-0.7,1.8,2470.469,13.31,0.04,235.1
2020-10-20T02:40:03,42.805,6.029,-0.044,-0.039,-0.061,103.0,105.0,102.0,13.4,1505.3,328.3,-0.7,1.8,2470.417,13.32,0.058,228.4
2020-10-20T02:43:03,42.805,6.029,-0.029,-0.03,-0.009,103.0,106.0,102.0,13.4,1505.3,326.6,-0.7,1.8,2470.395,13.32,0.041,224.0
2020-10-20T02:46:03,42.805,6.029,-0.032,-0.014,0.008,104.0,104.0,102.0,13.4,1505.3,323.5,-0.7,1.8,2470.376,13.32,0.034,246.4
2020-10-20T02:49:03,42.805,6.029,-0.035,-0.032,-0.016,102.0,104.0,101.0,13.4,1505.3,325.7,-0.7,1.8,2470.36,13.32,0.047,227.6
2020-10-20T02:52:03,42.805,6.029,-0.042,-0.043,-0.025,105.0,105.0,100.0,13.4,1505.3,325.0,-0.8,1.8,2470.339,13.33,0.06,224.3
2020-10-20T02:55:03,42.805,6.029,-0.027,-0.037,-0.022,104.0,104.0,103.0,13.3,1505.3,325.1,-0.7,1.8,2470.343,13.33,0.045,216.1
2020-10-20T02:58:03,42.805,6.029,-0.018,-0.024,0.014,103.0,107.0,101.0,13.3,1505.3,325.5,-0.7,1.8,2470.366,13.33,0.03,216.9
2020-10-20T03:04:03,42.805,6.029,-0.044,-0.046,-0.014,105.0,104.0,102.0,13.4,1505.3,325.3,-0.7,1.8,2470.384,13.31,0.063,223.7
2020-10-20T03:07:03,42.805,6.029,-0.033,-0.033,-0.001,104.0,105.0,101.0,13.4,1505.3,326.5,-0.7,1.8,2470.396,13.31,0.046,225.0
2020-10-20T03:10:03,42.805,6.029,-0.01,-0.039,-0.045,103.0,105.0,100.0,13.4,1505.3,326.6,-0.7,1.8,2470.365,13.32,0.04,194.4
2020-10-20T03:13:03,42.805,6.029,-0.041,-0.029,-0.007,103.0,107.0,101.0,13.4,1505.3,324.3,-0.7,1.8,2470.381,13.32,0.05,234.7
2020-10-20T03:16:03,42.805,6.029,-0.019,-0.026,0.008,103.0,105.0,101.0,13.4,1505.3,324.4,-0.7,1.8,2470.398,13.32,0.032,216.2
2020-10-20T03:19:03,42.805,6.029,-0.019,-0.045,-0.027,104.0,104.0,100.0,13.4,1505.3,327.9,-0.7,1.8,2470.372,13.32,0.048,202.9
2020-10-20T03:22:03,42.805,6.029,-0.022,-0.035,0.014,105.0,104.0,101.0,13.3,1505.3,327.3,-0.7,1.8,2470.365,13.33,0.041,212.2
2020-10-20T03:25:03,42.805,6.029,-0.019,-0.028,-0.023,104.0,106.0,101.0,13.4,1505.3,324.0,-0.7,1.8,2470.362,13.33,0.033,214.2
2020-10-20T03:28:03,42.805,6.029,-0.009,-0.026,-0.01,103.0,104.0,100.0,13.4,1505.3,323.0,-0.7,1.8,2470.353,13.33,0.027,199.1
2020-10-20T03:31:03,42.805,6.029,-0.02,-0.025,-0.004,103.0,105.0,101.0,13.4,1505.3,326.9,-0.7,1.8,2470.38,13.33,0.032,218.7
2020-10-20T03:34:03,42.805,6.029,-0.03,-0.038,0.008,102.0,105.0,102.0,13.3,1505.3,324.7,-0.7,1.8,2470.365,13.33,0.048,218.3
2020-10-20T03:37:03,42.805,6.029,-0.013,-0.033,0.015,102.0,106.0,101.0,13.4,1505.3,325.1,-0.7,1.8,2470.366,13.33,0.035,201.5
2020-10-20T03:40:03,42.805,6.029,-0.039,-0.014,-0.029,104.0,105.0,101.0,13.4,1505.3,326.8,-0.7,1.8,2470.316,13.33,0.041,250.3
2020-10-20T03:43:03,42.805,6.029,-0.035,-0.048,-0.046,103.0,106.0,102.0,13.3,1505.3,326.2,-0.7,1.8,2470.351,13.33,0.059,216.1
2020-10-20T03:46:03,42.805,6.029,-0.02,-0.036,-0.032,104.0,104.0,100.0,13.4,1505.3,325.8,-0.7,1.8,2470.343,13.33,0.041,209.1
2020-10-20T03:49:03,42.805,6.029,-0.039,-0.032,-0.037,105.0,104.0,102.0,13.4,1505.3,324.6,-0.7,1.8,2470.337,13.33,0.05,230.6
2020-10-20T03:52:03,42.805,6.029,-0.01,-0.043,0.009,103.0,106.0,101.0,13.4,1505.3,324.1,-0.7,1.8,2470.38,13.33,0.044,193.1
2020-10-20T03:55:03,42.805,6.029,-0.001,-0.031,-0.002,103.0,105.0,101.0,13.3,1505.3,327.5,-0.7,1.8,2470.32,13.33,0.031,181.8
2020-10-20T03:58:03,42.805,6.029,-0.04,-0.021,0.005,103.0,104.0,100.0,13.4,1505.3,327.5,-0.7,1.8,2470.363,13.33,0.045,242.3
2020-10-20T04:04:03,42.805,6.029,-0.033,-0.017,-0.033,103.0,105.0,101.0,13.4,1505.3,325.5,-0.7,1.8,2470.409,13.31,0.037,242.7
2020-10-20T04:07:03,42.805,6.029,-0.034,-0.036,-0.039,104.0,105.0,100.0,13.4,1505.3,326.5,-0.7,1.8,2470.365,13.31,0.049,223.4
2020-10-20T04:10:03,42.805,6.029,-0.052,-0.016,0.013,102.0,105.0,101.0,13.4,1505.3,326.5,-0.7,1.8,2470.359,13.32,0.054,252.9
2020-10-20T04:13:03,42.805,6.029,-0.019,-0.019,0.013,104.0,104.0,101.0,13.4,1505.3,324.4,-0.7,1.8,2470.344,13.32,0.026,225.0
2020-10-20T04:16:03,42.805,6.029,-0.047,-0.031,-0.005,104.0,105.0,101.0,13.4,1505.3,324.3,-0.7,1.8,2470.355,13.32,0.056,236.6
2020-10-20T04:19:03,42.805,6.029,-0.044,-0.044,-0.013,104.0,105.0,101.0,13.3,1505.3,326.5,-0.7,1.8,2470.36,13.32,0.062,225.0
2020-10-20T04:22:03,42.805,6.029,-0.034,-0.028,0.034,103.0,108.0,102.0,13.4,1505.3,326.5,-0.7,1.8,2470.394,13.33,0.044,230.5
2020-10-20T04:25:03,42.805,6.029,-0.039,-0.025,-0.008,102.0,105.0,102.0,13.4,1505.3,326.9,-0.7,1.8,2470.331,13.33,0.046,237.3
2020-10-20T04:28:03,42.805,6.029,-0.014,-0.026,0.009,103.0,106.0,102.0,13.4,1505.3,326.4,-0.7,1.8,2470.37,13.33,0.029,208.3
2020-10-20T04:31:03,42.805,6.029,-0.038,-0.02,0.0,103.0,105.0,101.0,13.4,1505.3,326.0,-0.7,1.8,2470.365,13.32,0.042,242.2
2020-10-20T04:34:03,42.805,6.029,-0.035,-0.014,-0.015,103.0,104.0,101.0,13.4,1505.3,325.6,-0.7,1.8,2470.369,13.33,0.037,248.2
2020-10-20T04:37:03,42.805,6.029,-0.037,-0.025,-0.006,102.0,104.0,100.0,13.4,1505.3,326.1,-0.7,1.8,2470.356,13.32,0.044,236.0
2020-10-20T04:40:03,42.805,6.029,-0.036,-0.033,-0.006,105.0,104.0,101.0,13.3,1505.3,326.7,-0.7,1.9,2470.304,13.32,0.048,227.5
2020-10-20T04:43:03,42.805,6.029,-0.032,-0.042,-0.005,103.0,104.0,102.0,13.4,1505.3,325.1,-0.7,1.8,2470.346,13.32,0.052,217.3
2020-10-20T04:46:03,42.805,6.029,-0.015,-0.049,-0.012,103.0,104.0,101.0,13.4,1505.3,325.9,-0.7,1.9,2470.355,13.32,0.051,197.0
2020-10-20T04:49:03,42.805,6.029,-0.049,-0.034,-0.033,104.0,104.0,102.0,13.3,1505.3,323.5,-0.7,1.8,2470.349,13.32,0.059,235.2
2020-10-20T04:52:03,42.805,6.029,-0.055,-0.012,-0.022,102.0,105.0,101.0,13.4,1505.3,327.7,-0.7,1.8,2470.359,13.32,0.056,257.7
2020-10-20T04:55:03,42.805,6.029,-0.049,-0.018,-0.01,104.0,105.0,102.0,13.3,1505.3,328.5,-0.7,1.8,2470.333,13.32,0.052,249.8
2020-10-20T04:58:03,42.805,6.029,-0.041,-0.041,-0.009,104.0,104.0,101.0,13.4,1505.3,325.0,-0.7,1.8,2470.359,13.32,0.057,225.0
2020-10-20T05:04:03,42.805,6.029,-0.064,-0.026,-0.05,103.0,103.0,101.0,13.4,1505.2,323.8,-0.7,1.8,2470.408,13.3,0.069,247.9
2020-10-20T05:07:03,42.805,6.029,-0.015,-0.046,0.01,105.0,104.0,100.0,13.4,1505.3,327.6,-0.7,1.8,2470.365,13.31,0.048,198.1
2020-10-20T05:10:03,42.805,6.029,-0.029,-0.051,-0.007,104.0,106.0,102.0,13.4,1505.3,325.7,-0.7,1.8,2470.418,13.32,0.058,209.6
2020-10-20T05:13:03,42.805,6.029,-0.019,-0.048,-0.005,104.0,105.0,101.0,13.3,1505.3,327.8,-0.7,1.8,2470.373,13.32,0.051,201.6
2020-10-20T05:16:03,42.805,6.029,-0.009,-0.023,-0.003,103.0,105.0,101.0,13.4,1505.3,323.9,-0.7,1.8,2470.37,13.32,0.024,201.4
2020-10-20T05:19:03,42.805,6.029,-0.036,-0.038,-0.037,105.0,104.0,102.0,13.4,1505.3,324.4,-0.7,1.8,2470.338,13.32,0.052,223.5
2020-10-20T05:22:03,42.805,6.029,-0.041,-0.01,0.024,104.0,104.0,101.0,13.4,1505.3,326.1,-0.7,1.8,2470.394,13.32,0.042,256.3
2020-10-20T05:25:03,42.805,6.029,-0.025,-0.041,-0.015,104.0,105.0,101.0,13.4,1505.3,326.3,-0.7,1.8,2470.373,13.32,0.048,211.4
2020-10-20T05:28:03,42.805,6.029,-0.039,-0.036,-0.001,102.0,105.0,103.0,13.4,1505.3,322.7,-0.7,1.8,2470.386,13.32,0.053,227.3
2020-10-20T05:31:03,42.805,6.029,-0.042,-0.033,-0.008,105.0,105.0,102.0,13.3,1505.3,325.4,-0.7,1.8,2470.381,13.32,0.053,231.8
2020-10-20T05:34:03,42.805,6.029,-0.033,-0.023,0.006,104.0,105.0,102.0,13.4,1505.3,327.4,-0.7,1.8,2470.408,13.32,0.04,235.1
2020-10-20T05:37:03,42.805,6.029,-0.039,-0.031,-0.002,105.0,105.0,101.0,13.4,1505.3,324.1,-0.7,1.9,2470.392,13.32,0.049,231.5
2020-10-20T05:40:03,42.805,6.029,-0.049,-0.033,-0.003,104.0,105.0,101.0,13.4,1505.3,325.3,-0.7,1.8,2470.414,13.32,0.059,236.0
2020-10-20T05:43:03,42.805,6.029,-0.017,-0.015,0.004,103.0,105.0,102.0,13.4,1505.3,324.4,-0.7,1.8,2470.394,13.32,0.022,228.6
2020-10-20T05:46:03,42.805,6.029,-0.031,-0.03,-0.015,105.0,104.0,102.0,13.3,1505.3,325.5,-0.7,1.8,2470.382,13.32,0.043,225.9
2020-10-20T05:49:03,42.805,6.029,-0.047,-0.012,-0.006,103.0,104.0,101.0,13.3,1505.3,327.0,-0.7,1.8,2470.411,13.32,0.048,255.7
2020-10-20T05:52:03,42.805,6.029,-0.018,-0.02,0.014,104.0,105.0,101.0,13.4,1505.3,326.0,-0.7,1.8,2470.368,13.32,0.026,222.0
2020-10-20T05:55:03,42.805,6.029,-0.061,-0.033,-0.04,104.0,105.0,102.0,13.3,1505.3,325.0,-0.7,1.8,2470.438,13.32,0.069,241.6
2020-10-20T05:58:03,42.805,6.029,-0.032,-0.024,0.004,105.0,106.0,102.0,13.4,1505.3,326.9,-0.7,1.8,2470.428,13.32,0.04,233.1
2020-10-20T06:04:03,42.805,6.029,-0.033,-0.006,0.012,104.0,106.0,102.0,13.4,1505.3,323.7,-0.7,1.8,2470.438,13.31,0.033,259.7
2020-10-20T06:07:03,42.805,6.029,-0.032,-0.018,0.01,105.0,105.0,101.0,13.3,1505.3,325.2,-0.7,1.8,2470.431,13.31,0.036,240.6
2020-10-20T06:10:03,42.805,6.029,-0.039,-0.038,-0.006,104.0,105.0,101.0,13.3,1505.3,325.5,-0.7,1.8,2470.443,13.32,0.054,225.7
2020-10-20T06:13:03,42.805,6.029,-0.034,-0.033,0.02,104.0,105.0,102.0,13.4,1505.3,328.2,-0.7,1.8,2470.477,13.32,0.047,225.9
2020-10-20T06:16:03,42.805,6.029,-0.013,-0.038,0.024,104.0,105.0,101.0,13.4,1505.3,324.7,-0.7,1.8,2470.413,13.32,0.04,198.9
2020-10-20T06:19:03,42.805,6.029,-0.021,-0.019,-0.004,104.0,105.0,102.0,13.4,1505.3,323.3,-0.7,1.8,2470.42,13.32,0.028,227.9
2020-10-20T06:22:03,42.805,6.029,-0.048,-0.022,0.001,105.0,104.0,102.0,13.4,1505.3,324.1,-0.7,1.8,2470.435,13.32,0.052,245.4
2020-10-20T06:25:03,42.805,6.029,-0.057,-0.029,-0.001,103.0,105.0,100.0,13.4,1505.3,327.6,-0.7,1.8,2470.461,13.32,0.063,243.0
2020-10-20T06:28:03,42.805,6.029,-0.013,-0.034,0.019,104.0,105.0,102.0,13.4,1505.3,328.1,-0.7,1.8,2470.445,13.32,0.036,200.9
2020-10-20T06:31:03,42.805,6.029,-0.048,-0.037,-0.012,103.0,106.0,102.0,13.4,1505.3,323.2,-0.7,1.8,2470.48,13.32,0.06,232.4
2020-10-20T06:34:03,42.805,6.029,-0.019,-0.018,0.024,104.0,105.0,102.0,13.4,1505.3,327.0,-0.7,1.9,2470.449,13.32,0.026,226.5
2020-10-20T06:37:03,42.805,6.029,-0.047,-0.034,-0.025,104.0,104.0,101.0,13.3,1505.3,323.9,-0.7,1.8,2470.462,13.32,0.058,234.1
2020-10-20T06:40:03,42.805,6.029,-0.057,-0.028,-0.027,104.0,105.0,102.0,13.4,1505.3,328.0,-0.7,1.8,2470.446,13.32,0.063,243.8
2020-10-20T06:43:03,42.805,6.029,-0.029,-0.045,0.003,103.0,106.0,102.0,13.4,1505.3,323.7,-0.7,1.8,2470.501,13.32,0.053,212.8
2020-10-20T06:46:03,42.805,6.029,-0.03,-0.037,-0.018,104.0,105.0,102.0,13.3,1505.3,324.3,-0.6,1.8,2470.499,13.32,0.047,219.0
2020-10-20T06:49:03,42.805,6.029,-0.037,-0.041,-0.016,104.0,105.0,102.0,13.4,1505.3,327.6,-0.7,1.8,2470.458,13.32,0.055,222.1
2020-10-20T06:52:03,42.805,6.029,-0.055,-0.032,-0.014,103.0,105.0,102.0,13.3,1505.3,325.8,-0.7,1.8,2470.517,13.32,0.063,239.8
2020-10-20T06:55:03,42.805,6.029,-0.051,-0.033,-0.028,105.0,104.0,102.0,13.4,1505.3,323.4,-0.7,1.8,2470.468,13.32,0.06,237.1
2020-10-20T06:58:03,42.805,6.029,-0.007,-0.043,0.029,104.0,105.0,102.0,13.4,1505.3,326.1,-0.7,1.8,2470.492,13.32,0.043,189.2
2020-10-20T07:04:03,42.805,6.029,-0.053,-0.039,-0.014,105.0,105.0,103.0,13.3,1505.2,328.1,-0.7,1.8,2470.522,13.3,0.065,233.7
2020-10-20T07:07:03,42.805,6.029,-0.036,-0.029,-0.001,105.0,104.0,103.0,13.4,1505.3,324.2,-0.7,1.8,2470.517,13.31,0.046,231.1
2020-10-20T07:10:03,42.805,6.029,-0.03,-0.024,-0.016,104.0,104.0,102.0,13.4,1505.3,324.8,-0.7,1.8,2470.51,13.32,0.038,231.3
2020-10-20T07:13:03,42.805,6.029,-0.023,-0.03,0.007,105.0,105.0,102.0,13.4,1505.3,325.4,-0.7,1.9,2470.5,13.32,0.037,217.5
2020-10-20T07:16:03,42.805,6.029,-0.043,-0.034,-0.004,104.0,105.0,101.0,13.4,1505.3,325.0,-0.7,1.8,2470.528,13.32,0.054,231.7
2020-10-20T07:19:03,42.805,6.029,-0.04,-0.049,0.015,105.0,104.0,102.0,13.4,1505.3,328.2,-0.7,1.8,2470.513,13.32,0.063,219.2
2020-10-20T07:22:03,42.805,6.029,-0.042,-0.038,-0.014,106.0,105.0,101.0,13.3,1505.3,324.3,-0.7,1.8,2470.543,13.32,0.056,227.9
2020-10-20T07:25:03,42.805,6.029,-0.016,-0.045,-0.013,105.0,106.0,101.0,13.4,1505.3,328.4,-0.7,1.9,2470.498,13.32,0.047,199.6
2020-10-20T07:28:03,42.805,6.029,-0.038,-0.032,-0.019,104.0,106.0,102.0,13.4,1505.3,326.0,-0.7,1.8,2470.559,13.32,0.049,229.9
2020-10-20T07:31:03,42.805,6.029,-0.054,-0.022,-0.004,105.0,105.0,102.0,13.4,1505.3,324.7,-0.7,1.8,2470.52,13.32,0.058,247.8
2020-10-20T07:34:03,42.805,6.029,-0.031,-0.014,0.0,104.0,106.0,102.0,13.4,1505.3,324.6,-0.7,1.8,2470.57,13.32,0.034,245.7
2020-10-20T07:37:03,42.805,6.029,-0.044,-0.021,-0.008,105.0,106.0,102.0,13.4,1505.3,326.8,-0.7,1.8,2470.545,13.32,0.048,244.5
2020-10-20T07:40:03,42.805,6.029,-0.036,-0.02,0.007,104.0,105.0,103.0,13.4,1505.3,325.1,-0.7,1.8,2470.516,13.32,0.041,240.9
2020-10-20T07:43:03,42.805,6.029,-0.053,-0.036,-0.021,105.0,106.0,101.0,13.3,1505.3,326.5,-0.7,1.8,2470.556,13.32,0.064,235.8
2020-10-20T07:46:03,42.805,6.029,-0.053,-0.029,0.002,106.0,105.0,103.0,13.3,1505.3,325.2,-0.7,1.8,2470.556,13.32,0.06,241.3
2020-10-20T07:49:03,42.805,6.029,-0.028,-0.023,0.014,104.0,106.0,101.0,13.4,1505.3,325.6,-0.7,1.8,2470.524,13.32,0.036,230.6
2020-10-20T07:52:03,42.805,6.029,-0.034,-0.023,-0.019,104.0,105.0,102.0,13.3,1505.3,322.9,-0.7,1.8,2470.54,13.32,0.041,235.9
2020-10-20T07:55:03,42.805,6.029,-0.055,-0.017,-0.014,105.0,106.0,101.0,13.3,1505.3,325.0,-0.7,1.8,2470.567,13.32,0.057,252.8
2020-10-20T07:58:03,42.805,6.029,-0.058,-0.03,-0.018,106.0,104.0,101.0,13.4,1505.3,327.6,-0.7,1.8,2470.538,13.32,0.065,242.6
2020-10-20T08:04:03,42.805,6.029,-0.041,-0.025,-0.024,105.0,104.0,102.0,13.3,1505.2,323.1,-0.7,1.9,2470.612,13.3,0.048,238.6
2020-10-20T08:07:03,42.805,6.029,-0.04,-0.034,0.006,104.0,104.0,102.0,13.3,1505.3,325.3,-0.7,1.8,2470.599,13.31,0.052,229.6
2020-10-20T08:10:03,42.805,6.029,-0.072,-0.019,-0.014,104.0,105.0,103.0,13.3,1505.3,326.7,-0.7,1.8,2470.594,13.32,0.074,255.2
2020-10-20T08:13:03,42.805,6.029,-0.065,-0.032,-0.021,103.0,104.0,102.0,13.4,1505.3,327.9,-0.7,1.8,2470.601,13.32,0.072,243.8
2020-10-20T08:16:03,42.805,6.029,-0.04,-0.019,-0.003,103.0,105.0,102.0,13.4,1505.3,327.8,-0.7,1.8,2470.599,13.32,0.044,244.6
2020-10-20T08:19:03,42.805,6.029,-0.045,-0.034,0.002,104.0,105.0,101.0,13.3,1505.3,327.8,-0.7,1.8,2470.615,13.32,0.056,232.9
2020-10-20T08:22:03,42.805,6.029,-0.035,-0.035,-0.017,104.0,105.0,102.0,13.4,1505.3,328.3,-0.7,1.8,2470.591,13.32,0.049,225.0
2020-10-20T08:25:03,42.805,6.029,-0.042,-0.041,0.006,104.0,106.0,102.0,13.3,1505.3,324.5,-0.7,1.8,2470.588,13.32,0.058,225.7
2020-10-20T08:28:03,42.805,6.029,-0.061,-0.029,-0.016,105.0,105.0,102.0,13.4,1505.3,327.3,-0.7,1.8,2470.589,13.32,0.067,244.6
2020-10-20T08:31:03,42.805,6.029,-0.041,-0.028,0.006,104.0,106.0,103.0,13.4,1505.3,323.8,-0.7,1.8,2470.592,13.32,0.049,235.7
2020-10-20T08:34:03,42.805,6.029,-0.048,-0.01,0.0,105.0,106.0,103.0,13.4,1505.3,327.4,-0.7,1.8,2470.601,13.32,0.049,258.2
2020-10-20T08:37:03,42.805,6.029,-0.07,-0.024,-0.024,104.0,105.0,101.0,13.4,1505.3,323.2,-0.7,1.8,2470.578,13.32,0.073,251.1
2020-10-20T08:40:03,42.805,6.029,-0.061,-0.039,-0.027,103.0,105.0,102.0,13.3,1505.3,324.9,-0.7,1.8,2470.595,13.32,0.072,237.4
2020-10-20T08:43:03,42.805,6.029,-0.058,-0.015,-0.005,104.0,105.0,101.0,13.4,1505.3,327.9,-0.7,1.8,2470.603,13.32,0.059,255.5
2020-10-20T08:46:03,42.805,6.029,-0.05,0.0,0.016,104.0,105.0,102.0,13.3,1505.3,326.5,-0.7,1.8,2470.564,13.32,0.05,270.0
2020-10-20T08:49:03,42.805,6.029,-0.05,-0.03,-0.016,105.0,106.0,103.0,13.4,1505.3,324.6,-0.7,1.8,2470.582,13.32,0.058,239.0
2020-10-20T08:52:03,42.805,6.029,-0.059,-0.025,-0.023,104.0,105.0,101.0,13.4,1505.3,325.7,-0.7,1.8,2470.601,13.32,0.064,247.0
2020-10-20T08:55:03,42.805,6.029,-0.051,-0.028,-0.008,104.0,104.0,102.0,13.4,1505.3,325.1,-0.7,1.8,2470.591,13.32,0.058,241.2
2020-10-20T08:58:03,42.805,6.029,-0.055,-0.004,0.01,104.0,105.0,102.0,13.4,1505.3,325.4,-0.7,1.8,2470.571,13.32,0.055,265.8
2020-10-20T09:04:03,42.805,6.029,-0.033,-0.009,-0.007,104.0,104.0,102.0,13.4,1505.2,326.5,-0.7,1.8,2470.61,13.3,0.034,254.7
2020-10-20T09:07:03,42.805,6.029,-0.025,-0.017,0.017,103.0,104.0,104.0,13.4,1505.3,325.3,-0.7,1.8,2470.583,13.31,0.03,235.8
2020-10-20T09:10:03,42.805,6.029,-0.03,-0.017,-0.011,104.0,104.0,101.0,13.4,1505.3,326.4,-0.7,1.8,2470.591,13.31,0.034,240.5
2020-10-20T09:13:03,42.805,6.029,-0.05,-0.005,-0.006,103.0,105.0,102.0,13.4,1505.3,325.3,-0.7,1.8,2470.654,13.32,0.05,264.3
2020-10-20T09:16:03,42.805,6.029,-0.045,-0.034,0.0,104.0,104.0,101.0,13.4,1505.3,327.4,-0.7,1.8,2470.601,13.32,0.056,232.9
2020-10-20T09:19:03,42.805,6.029,-0.039,-0.009,0.014,103.0,104.0,101.0,13.4,1505.3,326.8,-0.7,1.8,2470.623,13.32,0.04,257.0
2020-10-20T09:22:03,42.805,6.029,-0.027,-0.024,-0.018,104.0,104.0,100.0,13.4,1505.3,327.2,-0.7,1.8,2470.629,13.32,0.036,228.4
2020-10-20T09:25:03,42.805,6.029,-0.007,-0.019,0.011,104.0,102.0,101.0,13.3,1505.3,322.6,-0.7,1.8,2470.615,13.32,0.02,200.2
2020-10-20T09:28:03,42.805,6.029,-0.063,-0.037,-0.034,103.0,104.0,102.0,13.4,1505.3,324.1,-0.7,1.8,2470.594,13.32,0.073,239.6
2020-10-20T09:31:03,42.805,6.029,-0.059,-0.014,-0.012,104.0,104.0,102.0,13.4,1505.3,324.0,-0.7,1.8,2470.569,13.32,0.06,256.7
2020-10-20T09:34:03,42.805,6.029,-0.048,-0.013,0.0,102.0,105.0,101.0,13.4,1505.3,328.1,-0.7,1.8,2470.624,13.32,0.049,254.8
2020-10-20T09:37:03,42.805,6.029,-0.042,-0.015,-0.001,104.0,105.0,101.0,13.4,1505.3,327.8,-0.7,1.8,2470.614,13.32,0.044,250.4
2020-10-20T09:40:03,42.805,6.029,-0.087,-0.016,-0.008,103.0,104.0,101.0,13.3,1505.3,323.2,-0.7,1.8,2470.612,13.32,0.088,259.6
2020-10-20T09:43:03,42.805,6.029,-0.053,-0.024,-0.012,105.0,104.0,102.0,13.3,1505.3,326.1,-0.7,1.8,2470.59,13.32,0.058,245.6
2020-10-20T09:46:03,42.805,6.029,-0.068,-0.05,-0.034,104.0,104.0,101.0,13.4,1505.3,326.2,-0.7,1.8,2470.594,13.32,0.084,233.7
2020-10-20T09:49:03,42.805,6.029,-0.061,-0.032,-0.033,103.0,105.0,101.0,13.4,1505.3,326.5,-0.7,1.8,2470.613,13.32,0.068,242.3
2020-10-20T09:52:03,42.805,6.029,-0.053,-0.029,-0.048,103.0,105.0,102.0,13.4,1505.3,324.8,-0.7,1.8,2470.599,13.32,0.06,241.3
2020-10-20T09:55:03,42.805,6.029,-0.05,-0.021,-0.027,103.0,104.0,102.0,13.4,1505.3,325.1,-0.7,1.8,2470.569,13.32,0.054,247.2